Погода в Сеяхе

Погода в Сеяхе : погода сейчас, прогноз погоды и архив. Всё, что Вы хотите узнать о погоде в Сеяхе!

Хотите узнать прогноз погоды в Сеяхе? Тогда Вам сюда: Погода в Сеяхе

Поиск расширенной информации на нашем сайте:

Другие новости

Новости СМИ2

Главная страница сайта

Новости сайта

02.10.2013

Напоминаем, что на нашем новом сайте вы можете получить высокодетализированные прогнозы погоды по пунктам России, СНГ и мира (включающие важные для авиации метеовеличины, такие как направление и скорость ветра, видимость, явления погоды, количество и форма облачности, нижняя и верхняя граница облачности), а также ознакомиться с разнообразными материалами по авиационной метеорологии и подборкой полезных ссылок на эту тему.

Сайт Метеоцентр.Азия посвящён разработке технологий оптимизации авиаметеорологического обслуживания, включая проектирование и перспективное создание нескольких автоматизированных авиаметеорологических систем:
- система выпуска высокодетальных прогностических карт явлений погоды для нижнего воздушного пространства по России и ближнему зарубежью;
- система верификации прогнозов TAF (выпускаемых синоптиками официальных АМСГ РФ и ближнего зарубежья) и AUTOTAF (выпускаемых сайтом Метеоцентр.Азия) - выявление ошибок, онлайн-сопоставление с фактической погодой METAR, автоматическое внесение коррективов в прогнозы при резком отклонении фактической погоды от прогноза, подсчёт оправдываемости прогнозов по элементам и в целом;
- система обработки, анализа и отображения авиаметеорологической информации для применения провайдерами метеорологической информации.

Рекомендуем: Оптовым покупателям женские халаты оптом от нашего лучшего отечественного Российского производителя

Погода в Сеяхе - сегодня

Время (UTC), дата Ветер
(°,м/с) 
Видим.   Явления Облачность Т
(°С)
Тd
(°С)
f(%) Тe
(°С)
Pmin
(гПа)
dP
(гПа)
Po
(мм)
O2
(г/м3)
Тmin Tmax R s Состояние
почвы
00 26.04.17 010 (С) 0500 м  туман  ?/?  
-19.7 -21.9 83 -20  1015.4  0.3  760  332           
03 26.04.17 290 (З) 2000 м  дымка{туман}  10/10 100 м 
[St]
-17.4 -19.4 84 -21  1016.4  0.9  760  329  -19.8      36  неравномерный
сухой снег
100% 
06 26.04.17 260 (З) 4000 м  дымка{туман}  4/3 300 м средняя, верхняя 
[Ac trans|Ci fib]
-12.4 -14.2 86 -16  1017.6  1.3  761  323           
09 26.04.17 250 (З) 20000 м    9/9 700 м 
[Sc]
-9.7 -11.5 87 -14  1018.9  1.3  762  320           
12 26.04.17 240 (ЮЗ) 20000 м    9/9 660 м 
[Sc]
-7.4 -9.1 88 -12  1019.5  0.6  763  317           
15 26.04.17 250 (З) 20000 м    9/9 1000 м 
[Sc]
-5.9 -7.1 91 -10  1019.2  -0.3  763  315    -5.9       
18 26.04.17 270 (З) 20000 м    6/0 средняя, верхняя 
[Ac trans|Ci fib]
-14.1 -15.6 88 -18  1020.8  1.5  764  326           
21 26.04.17 290 (З) 0500 м  переохл. туман  ?/?  
-16.7 -18.6 85 -19  1021.4  0.7  764  330           
00 27.04.17 070 (В) 0500 м  переохл. туман  ?/?  
-16.6 -18.5 85 -17  1021.7  0.2  764  329           
03 27.04.17 170 (Ю) 2000 м  дымка{туман}  10/10 100 м 
[St]
-12.6 -14.1 89 -13  1021.3  -0.3  764  324  -17.4      36  неравномерный
сухой снег
100% 
06 27.04.17 250 (З) 4000 м  слаб. ливневой снег  9/8 300 м кучево-дожд., верхняя 
[Cb cap|Ci fib]
-7.1 -8 93 -7  1020.8  -0.5  764  317           
09 27.04.17 270 (З) 20000 м  {ливн. осадки}  8/3 600 м средняя, верхняя 
[Cu med, cong|Ac trans|Ci fib]
-6.1 -7.8 88 -8  1020.3  -0.5  763  315           
12 27.04.17 240 (ЮЗ) 20000 м  {ливн. осадки}  9/8 600 м верхняя 
[Cu Sc|Ci fib]
-5.5 -8.1 82 -7  1019.5  -0.7  763  315           
15 27.04.17 130 (ЮВ) 20000 м    10/10 660 м 
[Sc]
-6.6 -7.8 91 -9  1018.3  -1.3  762  315    -5.2  0.2     
18 27.04.17 170 (Ю) 20000 м    10/10 930 м 
[Sc]
-8.1 -9.1 92 -10  1017.3  -1  761  317           
21 27.04.17 130 (ЮВ) 20000 м    10/10 1050 м 
[Sc]
-8.5 -9.5 92 -13  1014.6  -2.7  759  317           
00 28.04.17 130 (ЮВ) 8{10}  4000 м  слаб. снег  10/0 средняя 
[As op]
-7.4 -8.4 93 -13  1011.7  -2.9  757  314           
03 28.04.17 130 (ЮВ) 10-13{13}  4000 м  позёмок{снег}  9/6 570 м средняя 
[Sc|Ac trans]
-7.3 -8.6 90 -14  1008.9  -2.8  755  313  -8.6    0.5  36  неравномерный
сухой снег
100% 
06 28.04.17 130 (ЮВ) 11-13{14}  4000 м  позёмок{снег}  9/8 360 м средняя 
[Sc|Ac trans]
-7 -8.4 90 -14  1007  -1.9  754  312           
09 28.04.17 140 (ЮВ) 7{14}  4000 м  слаб. снег  10/0 средняя 
[As op]
-5.7 -7.1 90 -11  1005.3  -1.7  752  310           
12 28.04.17 130 (ЮВ) 4000 м  слаб. снег  10/10 420 м 
[Sc]
-4.9 -6.3 90 -8  1004.9  -0.4  752  309           
15 28.04.17 100 (В) 4000 м  слаб. снег  10/0 средняя 
[As op]
-5.7 -6.7 93 -10  1005.3  0.4  752  310    -4.9     
18 28.04.17 070 (В) 4000 м  слаб. снег  10/0 средняя 
[As op]
-7.7 -8.7 93 -13  1005.8  0.5  753  313           
21 28.04.17 060 (СВ) 20000 м  {снег}  8/0 средняя, верхняя 
[Ac trans|Ci fib]
-15.3 -17 87 -19  1007.3  1.4  754  323           
00 29.04.17 030 (СВ) 20000 м  {снег}  3/0 верхняя 
[Ci fib]
-17.3 -19.2 85 -22  1009.4  2.1  755  326           
Время (UTC), дата Ветер
(°,м/с) 
Видим.   Явления Облачность Т
(°С)
Тd
(°С)
f(%) Тe
(°С)
Pmin
(гПа)
dP
(гПа)
Po
(мм)
O2
(г/м3)
Тmin Tmax R s Состояние
почвы

Для получения пояснительной информации подведите курсор к названию столбца.

ПОГОДА в Сеяхе - архив

Всё, что Вы хотите узнать о погоде в Сеяхе - удобно и подробно!

Выберите нужную дату (начиная с 1 января 2015* года) и нажмите кнопку "Найти".
Будут отображены архивные сводки погоды по пункту Сеяха, начиная с указанной даты.


Отображать данные в формате CSV (для использования в таблицах Excel)


Внимание! Наш архив погоды предназначен исключительно для личного некоммерческого использования в познавательных целях. Если Вам необходимы официальные справки о состоянии погоды (для производственных, юридических, коммерческих и т.п. целей), обращайтесь в органы Росгидромета.

*Примечание: данная дата относится к архиву по метеостанциям СССР (Россия, СНГ, Балтия).
Архив по метеостанциям Зарубежной Европы и Азии (кроме Китая) хранится 10 дней, по другим регионам земного шара (Китай, Африка, Америка, Австралия, Океания) - 1 день.

Сеяха - район местоположения метеостанции


Название, широта, долгота, высота метеостанции:
Сеяха 70.2°ш. 72.5°д. 16 м над ур. моря [Российская Федерация]

Дополнительная информация

В oтличие oт бoльшинства пoгoдных сайтoв мы публикуем пoдрoбную метеoинфoрмацию в детальнoм прoфессиoнальнoм фoрмате.

Характеристики температуры и влажнoсти вoздуха измеряются на высoте 2 м в тени вдали oт зданий и деревьев.
Скoрoсть ветра измеряется на высoте 10 м (на урoвне рoста челoвека скoрoсть ветра ниже в 1.5-2 раза). Если метеoстанция нахoдится в гoрoде или в лесу, тo скoрoсть ветра занижена на 2-4 м/с пo сравнению с oткрытым местoм. Скoрoсть ветра над акватoриями крупных рек и oзёр, а также на вершинах хoлмoв на 2-5 м/с выше, чем в oбычных услoвиях.
Атмoсфернoе давление в разных тoчках местнoсти мoжет значительнo oтличаться oт давления на метеoстанции, в зависимoсти oт услoвий рельефа (при пoдъёме на 10 м давление пoнижается примернo на 1 мм рт.ст.).